Regional Weather Roundup
Issued by NWS

Home | Current Version | Previous Version | Graphics & Text | Print | Product List | Glossary On
Versions: 1 2 3 4 5 6 7 8 9 10 11 12 13 14 15 16 17 18 19 20 21 22 23 24 25 26 27 28 29 30 31 32 33 34 35 36 37 38 39 40 41 42 43 44 45 46 47 48 49 50
000
ASUS43 KMPX 280101
RWRMN
WEATHER ROUNDUP FOR MINNESOTA
NATIONAL WEATHER SERVICE TWIN CITIES/CHANHASSEN MN
700 PM CST MON FEB 27 2017


NOTE: "FAIR" INDICATES FEW OR NO CLOUDS BELOW 12,000 FEET WITH NO
SIGNIFICANT WEATHER AND/OR OBSTRUCTIONS TO VISIBILITY. N/A MEANS
CURRENT SKY AND/OR WEATHER CONDITIONS ARE NOT AVAILABLE.

MNZ060>063-068>070-280200-
   Twin Cities Metro

CITY           SKY/WX    TMP DP  RH WIND       PRES   REMARKS
TWIN CITIES    CLOUDY    38  24  57 S6        29.90R
ST PAUL        CLOUDY    37  24  59 SE10      29.90F
CRYSTAL        CLOUDY    38  22  52 SE13      29.87S
LAKEVILLE      CLOUDY    34  28  80 SE3       29.89R
EDEN PRAIRIE   CLOUDY    37  23  56 SE8       29.87S
SOUTH ST PAUL  CLOUDY    38  23  56 S6        29.90R
LAKE ELMO      FAIR      36  25  64 SE7       29.90S
$$
MNZ001>005-007-008-013>017-022>024-027-028-280200-
   Northwest Minnesota

CITY           SKY/WX    TMP DP  RH WIND       PRES   REMARKS
BEMIDJI        CLOUDY    27  18  67 CALM      29.83R
HALLOCK        LGT SNOW  16  12  86 N8        29.94R WCI   5
ROSEAU         LGT SNOW  21  18  86 N6        29.90R WCI  14
WARROAD        LGT SNOW  21  18  86 NW6       29.91R WCI  14
THIEF RVR FALL   N/A    N/A N/A N/A MISG        N/A
CROOKSTON      CLOUDY    23  19  86 N12       29.90R WCI  12
FOSSTON        CLOUDY    23  16  74 N12       29.85S WCI  12
DETROIT LAKES  CLOUDY    32  27  80 NE3       29.80S
MOORHEAD       CLOUDY    30  23  74 N13       29.84R WCI  20
PARK RAPIDS    CLOUDY    32  22  66 E3        29.79S
MAHNOMEN       FAIR      27  20  76 N15       29.82S WCI  15
$$
MNZ006-009>011-018-025>026-280200-
   North Central Minnesota

CITY           SKY/WX    TMP DP  RH WIND       PRES   REMARKS
BAUDETTE       CLOUDY    23  13  65 N7        29.87R WCI  15
FLAG ISLAND    MIX PCPN  21  18  86 N7        29.90R WCI  13
INTL FALLS     CLOUDY    25   8  48 NE5       29.87S WCI  19
WASKISH        CLOUDY    27  16  63 N3        29.86R
BIG FORK       CLOUDY    30  18  59 CALM      29.84S
LONGVILLE      CLOUDY    30  25  80 CALM      29.82S
GRAND RAPIDS   CLOUDY    31  24  75 CALM      29.85R
CRANE LAKE     CLOUDY    23  14  68 CALM      29.89F
ORR            CLOUDY    27  16  63 CALM      29.84S
COOK           CLOUDY    28  19  69 CALM      29.86R
WALKER         CLOUDY    28  20  70 CALM      29.82S
$$
MNZ012-019>021-037-280200-
   Northeast Minnesota

CITY           SKY/WX    TMP DP  RH WIND       PRES   REMARKS
DULUTH         CLOUDY    26  24  92 E17       29.86S WCI  13
ELY            MOCLDY    27  18  69 CALM      29.86F
HIBBING        CLOUDY    29  21  72 SE5       29.84S WCI  24
EVELETH        CLOUDY    32  20  62 E3        29.86S
DULUTH HARBOR  CLOUDY    30  27  86 E14       29.92S WCI  20
TWO HARBORS    MOCLDY    28  23  80 E8        29.89R WCI  20
SILVER BAY     CLOUDY    27  23  86 E6        29.90R WCI  20
GRAND MARAIS     N/A     26  20  77 NE3       29.95S
G MARAIS ARPRT PTCLDY    18  12  79 N5        29.88F WCI  11
$$
MNZ029>031-032-039>041-046>048-054>057-064-280200-
   West Central Minnesota

CITY           SKY/WX    TMP DP  RH WIND       PRES   REMARKS
FERGUS FALLS   PTCLDY    34  25  69 E6        29.80F WCI  29
WHEATON        CLOUDY    34  30  86 CALM      29.77S
MORRIS         CLOUDY    36  28  75 SE8       29.76R
ALEXANDRIA     CLOUDY    36  26  67 SE6       29.78R
ELBOW LAKE     MOCLDY    34  28  76 SE8       29.75F WCI  27
WADENA         CLEAR     28  23  80 E6          N/A  WCI  22
GLENWOOD       CLOUDY    37  28  70 SE9       29.79R
APPLETON       PTCLDY    43  25  49 S9        29.77R
BENSON         CLOUDY    39  23  52 S7        29.79R
ORTONVILLE     CLOUDY    41  25  52 S6        29.76R
MADISON        CLOUDY    39  28  65 S6        29.77R
WILLMAR        MOCLDY    37  30  75 SE13      29.81S
$$
MNZ033>034-036-042>043-049>051-058-059-280200-
   Central Minnesota

CITY           SKY/WX    TMP DP  RH WIND       PRES   REMARKS
ST CLOUD       CLOUDY    36  25  64 SE12      29.82F
SAUK CENTRE    FAIR      35  29  79 SE3       29.79S
PAYNESVILLE    MOCLDY    37  27  68 SE14      29.80S
AITKIN         CLOUDY    34  23  64 CALM      29.81S
PINE RIVER     CLOUDY    28  25  86 CALM      29.85S
BRAINERD       CLOUDY    30  24  78 CALM      29.81S
STAPLES        PTCLDY    28  21  74 CALM      29.80R
LONG PRAIRIE   FAIR      34  28  80 E9        29.79R WCI  26
LITTLE FALLS   CLOUDY    36  25  64 SE7       29.81S
LITCHFIELD     CLOUDY    37  27  65 SE9       29.84R
BUFFALO        CLOUDY    38  22  53 SE6       29.87R
MAPLE LAKE     CLOUDY    38  27  63 SE7       29.85S
HUTCHINSON     CLOUDY    36  29  78 SE9       29.85S
$$
MNZ037-044-045-052-053-280200-
   East Central Minnesota

CITY           SKY/WX    TMP DP  RH WIND       PRES   REMARKS
PRINCETON      CLOUDY    39  21  48 SE7       29.85S
MORA           PTCLDY    36  21  55 SE6       29.87S
CAMBRIDGE      CLOUDY    39  25  56 SE7       29.85S
RUSH CITY      CLOUDY    37  21  51 SE9       29.88S
MOOSE LAKE     CLOUDY    32  23  69 E3        29.84S
HINCKLEY       FAIR      37  23  56 S8        29.86S
CLOQUET        CLOUDY    27  23  86 E8        29.87S WCI  18
MCGREGOR       CLOUDY    34  27  75 E3        29.83S
$$
MNZ071>073-080-081-089-090-097-098-280200-
   Southwest Minnesota

CITY           SKY/WX    TMP DP  RH WIND       PRES   REMARKS
MONTEVIDEO     CLOUDY    41  27  56 S12G17    29.78S
GRANITE FALLS  CLOUDY    40  29  65 SE10      29.81S
CANBY          PTCLDY    40  27  58 CALM      29.77R
MARSHALL       CLOUDY    40  26  57 S9        29.80R
REDWOOD FALLS  CLOUDY    36  27  69 SE12      29.82R
OLIVIA         CLOUDY    36  30  80 SE12      29.82R
PIPESTONE      CLOUDY    37  27  65 S7        29.76S
WINDOM         CLOUDY    36  28  75 SE10      29.80S
WORTHINGTON    CLOUDY    34  30  85 SE7       29.79R WCI  28
JACKSON        CLOUDY    34  30  86 SE8       29.81R WCI  27
TRACY          CLOUDY    38  29  70 S7        29.80R
SLAYTON        CLOUDY    33  30  88 SE7       29.80R WCI  27
$$
MNZ065>067-074>077-082>085-091>093-280200-
   South Central Minnesota

CITY           SKY/WX    TMP DP  RH WIND       PRES   REMARKS
MANKATO          N/A     35  29  78 SE10      29.85F WCI  27
NEW ULM        CLOUDY    36  27  69 SE8       29.83F
ST JAMES       CLOUDY    34  30  86 SE9       29.83S WCI  26
FAIRMONT       CLOUDY    35  31  85 SE7       29.83F WCI  29
GLENCOE        CLOUDY    37  29  71 SE7       29.85S
FARIBAULT      CLOUDY    36  28  75 E5        29.88R
OWATONNA       CLOUDY    37  28  70 E9G20     29.86F
WASECA         CLOUDY    36  32  87 E9        29.87S
ALBERT LEA     CLOUDY    37  30  75 SE7       29.85F
$$
MNZ078>079-086>088-094>096-280200-
   Southeast Minnesota

CITY           SKY/WX    TMP DP  RH WIND       PRES   REMARKS
ROCHESTER      CLOUDY    37  30  75 SE16      29.88F
RED WING       MOCLDY    39  25  56 E7        29.90F
STANTON        PTCLDY    38  29  68 SE5       29.87F
WINONA         CLEAR     37  30  75 CALM      29.94F
AUSTIN         MOCLDY    36  30  80 SE6       29.86S
PRESTON        MOCLDY    38  30  71 SE9       29.89F
$$
ABBREVIATIONS USED IN REMARKS
   TC - TEMPERATURES IN CELSIUS
  WCI - WIND CHILL INDEX
   HX - HEAT INDEX
  VSB - VISIBILITY
$$




USA.gov is the U.S. government's official web portal to all federal, state and local government web resources and services.